| time (UTC) | temp C | wind direction | speed KPH | gust KPH | rain 1hr cm | rain 24hr cm | rain mn cm | humidity % | barometer mb |
| 20260504034103 | 16 | 210 | 0.0 | 0.0 | 0.00 | 0.00 | 0.00 | 76 | 1019.5 |
| 20260504033601 | 16 | 194 | 0.0 | 0.0 | 0.00 | 0.00 | 0.00 | 76 | 1019.3 |
| 20260504033057 | 16 | 194 | 0.0 | 0.0 | 0.00 | 0.00 | 0.00 | 76 | 1019.3 |
| 20260504032554 | 16 | 194 | 0.0 | 0.0 | 0.00 | 0.00 | 0.00 | 75 | 1019.4 |
| 20260504032051 | 16 | 194 | 0.0 | 0.0 | 0.00 | 0.00 | 0.00 | 74 | 1019.2 |
| 20260504031548 | 16 | 210 | 0.0 | 0.0 | 0.00 | 0.00 | 0.00 | 74 | 1019.6 |
| 20260504031044 | 16 | 195 | 0.0 | 0.0 | 0.00 | 0.00 | 0.00 | 73 | 1019.4 |
| 20260504030542 | 17 | 195 | 0.0 | 0.0 | 0.00 | 0.00 | 0.00 | 73 | 1019.2 |
| 20260504030038 | 17 | 195 | 0.0 | 0.0 | 0.00 | 0.00 | 0.00 | 72 | 1019.4 |
| 20260504025535 | 17 | 195 | 0.0 | 0.0 | 0.00 | 0.00 | 0.00 | 72 | 1019.4 |
| 20260504025032 | 17 | 195 | 0.0 | 0.0 | 0.00 | 0.00 | 0.00 | 71 | 1019.3 |
| 20260504024529 | 17 | 195 | 0.0 | 0.0 | 0.00 | 0.00 | 0.00 | 71 | 1019.4 |
| 20260504024026 | 18 | 195 | 0.0 | 0.0 | 0.00 | 0.00 | 0.00 | 69 | 1019.4 |
| 20260504023522 | 18 | 195 | 0.0 | 0.0 | 0.00 | 0.00 | 0.00 | 69 | 1019.4 |
| 20260504023018 | 18 | 210 | 0.0 | 0.0 | 0.00 | 0.00 | 0.00 | 69 | 1019.2 |
| 20260504022514 | 18 | 199 | 0.0 | 0.0 | 0.00 | 0.00 | 0.00 | 69 | 1019.3 |
| 20260504022011 | 18 | 191 | 0.0 | 0.0 | 0.00 | 0.00 | 0.00 | 69 | 1019.4 |
| 20260504021509 | 18 | 191 | 0.0 | 0.0 | 0.00 | 0.00 | 0.00 | 68 | 1019.2 |
| 20260504021005 | 18 | 176 | 0.0 | 0.0 | 0.00 | 0.00 | 0.00 | 68 | 1019.2 |
| 20260504020502 | 18 | 193 | 0.0 | 0.0 | 0.00 | 0.00 | 0.00 | 67 | 1019.1 |
| 20260504015959 | 18 | 193 | 0.0 | 0.0 | 0.00 | 0.00 | 0.00 | 67 | 1018.9 |
| 20260504015455 | 18 | 193 | 0.0 | 0.0 | 0.00 | 0.00 | 0.00 | 66 | 1019.3 |
| 20260504014951 | 18 | 193 | 0.0 | 0.0 | 0.00 | 0.00 | 0.00 | 66 | 1019.1 |
| 20260504014447 | 19 | 193 | 0.0 | 0.0 | 0.00 | 0.00 | 0.00 | 65 | 1018.7 |
| 20260504013944 | 19 | 193 | 0.0 | 0.0 | 0.00 | 0.00 | 0.00 | 64 | 1018.7 |
| 20260504013443 | 20 | 193 | 0.0 | 0.0 | 0.00 | 0.00 | 0.00 | 63 | 1018.8 |
| 20260504012938 | 20 | 191 | 0.0 | 0.0 | 0.00 | 0.00 | 0.00 | 63 | 1018.6 |
| 20260504012436 | 20 | 186 | 0.0 | 0.0 | 0.00 | 0.00 | 0.00 | 62 | 1018.7 |
| 20260504011934 | 20 | 195 | 0.0 | 0.0 | 0.00 | 0.00 | 0.00 | 61 | 1018.5 |
| 20260504011430 | 20 | 195 | 0.0 | 0.0 | 0.00 | 0.00 | 0.00 | 61 | 1018.4 |
| 20260504010926 | 20 | 188 | 0.0 | 0.0 | 0.00 | 0.00 | 0.00 | 60 | 1018.4 |
| 20260504010422 | 20 | 188 | 0.0 | 0.0 | 0.00 | 0.00 | 0.00 | 59 | 1018.5 |
| 20260504005919 | 20 | 189 | 0.0 | 0.0 | 0.00 | 0.00 | 0.00 | 58 | 1018.2 |
| 20260504005415 | 20 | 191 | 0.0 | 0.0 | 0.00 | 0.00 | 0.00 | 58 | 1018.3 |
| 20260504004913 | 20 | 189 | 0.0 | 1.6 | 0.00 | 0.00 | 0.00 | 57 | 1018.4 |
| 20260504004411 | 20 | 191 | 1.6 | 1.6 | 0.00 | 0.00 | 0.00 | 56 | 1018.4 |
| 20260504003907 | 20 | 188 | 0.0 | 0.0 | 0.00 | 0.00 | 0.00 | 56 | 1018.2 |
| 20260504003404 | 20 | 187 | 1.6 | 1.6 | 0.00 | 0.00 | 0.00 | 55 | 1018.3 |
| 20260504002900 | 21 | 176 | 0.0 | 0.0 | 0.00 | 0.00 | 0.00 | 54 | 1018.3 |
| 20260504002357 | 21 | 188 | 1.6 | 1.6 | 0.00 | 0.00 | 0.00 | 54 | 1018.1 |
| 20260504001855 | 21 | 211 | 0.0 | 1.6 | 0.00 | 0.00 | 0.00 | 54 | 1018.1 |
| 20260504001352 | 21 | 182 | 0.0 | 0.0 | 0.00 | 0.00 | 0.00 | 52 | 1018.1 |
| 20260504000849 | 21 | 185 | 0.0 | 1.6 | 0.00 | 0.00 | 0.00 | 51 | 1018.2 |
| 20260504000346 | 21 | 182 | 3.2 | 3.2 | 0.00 | 0.00 | 0.00 | 51 | 1018.2 |
| 20260503235843 | 21 | 185 | 3.2 | 3.2 | 0.00 | 0.00 | 0.00 | 52 | 1018.2 |
| 20260503235341 | 21 | 206 | 3.2 | 4.8 | 0.00 | 0.00 | 0.00 | 51 | 1018.1 |
| 20260503234838 | 21 | 200 | 4.8 | 4.8 | 0.00 | 0.00 | 0.00 | 50 | 1018.0 |
| 20260503234336 | 21 | 188 | 0.0 | 0.0 | 0.00 | 0.00 | 0.00 | 49 | 1018.3 |
| 20260503233833 | 21 | 225 | 6.4 | 6.4 | 0.00 | 0.00 | 0.00 | 49 | 1018.3 |
| 20260503233329 | 22 | 212 | 1.6 | 1.6 | 0.00 | 0.00 | 0.00 | 46 | 1018.1 |
| 20260503232826 | 22 | 215 | 6.4 | 6.4 | 0.00 | 0.00 | 0.00 | 46 | 1018.1 |
| 20260503232323 | 22 | 191 | 0.0 | 1.6 | 0.00 | 0.00 | 0.00 | 46 | 1018.2 |
| 20260503231821 | 22 | 193 | 1.6 | 1.6 | 0.00 | 0.00 | 0.00 | 47 | 1018.2 |
| 20260503231318 | 22 | 215 | 6.4 | 6.4 | 0.00 | 0.00 | 0.00 | 47 | 1018.2 |
| 20260503230814 | 22 | 179 | 0.0 | 1.6 | 0.00 | 0.00 | 0.00 | 44 | 1018.2 |
| 20260503230311 | 23 | 195 | 3.2 | 3.2 | 0.00 | 0.00 | 0.00 | 44 | 1018.2 |
| 20260503225809 | 23 | 176 | 1.6 | 1.6 | 0.00 | 0.00 | 0.00 | 43 | 1018.2 |
| 20260503225304 | 23 | 188 | 3.2 | 3.2 | 0.00 | 0.00 | 0.00 | 42 | 1018.2 |
| 20260503224801 | 23 | 187 | 1.6 | 3.2 | 0.00 | 0.00 | 0.00 | 43 | 1018.1 |
| 20260503224258 | 23 | 138 | 3.2 | 3.2 | 0.00 | 0.00 | 0.00 | 43 | 1018.1 |
| 20260503223756 | 23 | 214 | 6.4 | 9.7 | 0.00 | 0.00 | 0.00 | 40 | 1018.0 |
| 20260503223253 | 23 | 201 | 4.8 | 4.8 | 0.00 | 0.00 | 0.00 | 41 | 1018.1 |
| 20260503222749 | 23 | 206 | 1.6 | 3.2 | 0.00 | 0.00 | 0.00 | 41 | 1018.0 |
| 20260503222247 | 23 | 214 | 3.2 | 4.8 | 0.00 | 0.00 | 0.00 | 41 | 1017.8 |
| 20260503221745 | 24 | 216 | 3.2 | 3.2 | 0.00 | 0.00 | 0.00 | 38 | 1018.0 |
| 20260503221243 | 23 | 184 | 0.0 | 0.0 | 0.00 | 0.00 | 0.00 | 40 | 1017.9 |
| 20260503220739 | 24 | 226 | 3.2 | 4.8 | 0.00 | 0.00 | 0.00 | 38 | 1018.0 |
| 20260503220236 | 24 | 195 | 0.0 | 1.6 | 0.00 | 0.00 | 0.00 | 39 | 1018.0 |
| 20260503215733 | 24 | 209 | 1.6 | 3.2 | 0.00 | 0.00 | 0.00 | 38 | 1018.1 |
| 20260503215230 | 25 | 214 | 4.8 | 4.8 | 0.00 | 0.00 | 0.00 | 37 | 1018.1 |
| 20260503214728 | 26 | 214 | 6.4 | 6.4 | 0.00 | 0.00 | 0.00 | 28 | 1018.3 |
| 20260503214225 | 26 | 161 | 0.0 | 0.0 | 0.00 | 0.00 | 0.00 | 30 | 1018.3 |
| 20260503213723 | 27 | 222 | 1.6 | 3.2 | 0.00 | 0.00 | 0.00 | 27 | 1018.2 |
| 20260503213220 | 26 | 168 | 0.0 | 0.0 | 0.00 | 0.00 | 0.00 | 29 | 1018.2 |
| 20260503212716 | 26 | 174 | 0.0 | 0.0 | 0.00 | 0.00 | 0.00 | 29 | 1018.2 |
| 20260503212214 | 26 | 133 | 0.0 | 1.6 | 0.00 | 0.00 | 0.00 | 29 | 1018.5 |
| 20260503211712 | 26 | 3 | 0.0 | 1.6 | 0.00 | 0.00 | 0.00 | 27 | 1018.7 |
| 20260503211208 | 27 | 168 | 0.0 | 0.0 | 0.00 | 0.00 | 0.00 | 31 | 1018.6 |
| 20260503210703 | 26 | 189 | 0.0 | 1.6 | 0.00 | 0.00 | 0.00 | 28 | 1018.4 |
| 20260503210201 | 26 | 182 | 0.0 | 1.6 | 0.00 | 0.00 | 0.00 | 30 | 1018.5 |
| 20260503205655 | 26 | 180 | 1.6 | 3.2 | 0.00 | 0.00 | 0.00 | 32 | 1018.4 |
| 20260503205152 | 26 | 65 | 1.6 | 3.2 | 0.00 | 0.00 | 0.00 | 28 | 1018.5 |
| 20260503204649 | 27 | 123 | 1.6 | 3.2 | 0.00 | 0.00 | 0.00 | 27 | 1018.9 |
| 20260503204147 | 27 | 163 | 1.6 | 1.6 | 0.00 | 0.00 | 0.00 | 27 | 1018.7 |
| 20260503203643 | 27 | 167 | 0.0 | 1.6 | 0.00 | 0.00 | 0.00 | 27 | 1018.7 |
| 20260503203141 | 27 | 47 | 1.6 | 1.6 | 0.00 | 0.00 | 0.00 | 28 | 1018.7 |
| 20260503202638 | 26 | 126 | 1.6 | 1.6 | 0.00 | 0.00 | 0.00 | 30 | 1018.9 |
| 20260503202136 | 26 | 152 | 0.0 | 1.6 | 0.00 | 0.00 | 0.00 | 28 | 1018.9 |
| 20260503201634 | 26 | 77 | 1.6 | 1.6 | 0.00 | 0.00 | 0.00 | 31 | 1019.0 |
| 20260503201131 | 26 | 199 | 3.2 | 3.2 | 0.00 | 0.00 | 0.00 | 28 | 1019.1 |
| 20260503200627 | 26 | 179 | 1.6 | 1.6 | 0.00 | 0.00 | 0.00 | 30 | 1019.1 |
| 20260503200124 | 27 | 148 | 0.0 | 1.6 | 0.00 | 0.00 | 0.00 | 28 | 1019.1 |
| 20260503195621 | 26 | 191 | 1.6 | 3.2 | 0.00 | 0.00 | 0.00 | 28 | 1019.4 |
| 20260503195118 | 27 | 131 | 1.6 | 3.2 | 0.00 | 0.00 | 0.00 | 26 | 1019.7 |
| 20260503194615 | 27 | 0 | 1.6 | 1.6 | 0.00 | 0.00 | 0.00 | 28 | 1019.7 |
| 20260503194110 | 27 | 17 | 1.6 | 3.2 | 0.00 | 0.00 | 0.00 | 27 | 1019.7 |
| 20260503193607 | 27 | 181 | 0.0 | 1.6 | 0.00 | 0.00 | 0.00 | 30 | 1019.7 |
| 20260503193102 | 26 | 193 | 0.0 | 1.6 | 0.00 | 0.00 | 0.00 | 30 | 1020.0 |
| 20260503192558 | 26 | 182 | 0.0 | 0.0 | 0.00 | 0.00 | 0.00 | 29 | 1019.8 |
| 20260503192054 | 26 | 220 | 1.6 | 3.2 | 0.00 | 0.00 | 0.00 | 28 | 1019.7 |
| 20260503191551 | 26 | 216 | 3.2 | 3.2 | 0.00 | 0.00 | 0.00 | 29 | 1020.1 |
| 20260503191048 | 26 | 61 | 4.8 | 6.4 | 0.00 | 0.00 | 0.00 | 27 | 1020.3 |
| 20260503190545 | 26 | 55 | 1.6 | 3.2 | 0.00 | 0.00 | 0.00 | 28 | 1020.3 |
| 20260503190042 | 25 | 180 | 1.6 | 3.2 | 0.00 | 0.00 | 0.00 | 30 | 1020.2 |
| 20260503185539 | 26 | 10 | 3.2 | 3.2 | 0.00 | 0.00 | 0.00 | 28 | 1020.5 |
| 20260503185038 | 26 | 91 | 1.6 | 1.6 | 0.00 | 0.00 | 0.00 | 29 | 1020.4 |
| 20260503184534 | 26 | 52 | 3.2 | 3.2 | 0.00 | 0.00 | 0.00 | 29 | 1020.6 |
| 20260503184031 | 26 | 173 | 1.6 | 1.6 | 0.00 | 0.00 | 0.00 | 29 | 1020.7 |
| 20260503183528 | 25 | 195 | 1.6 | 3.2 | 0.00 | 0.00 | 0.00 | 28 | 1020.6 |
| 20260503183025 | 26 | 90 | 3.2 | 3.2 | 0.00 | 0.00 | 0.00 | 27 | 1020.9 |
| 20260503182523 | 26 | 20 | 4.8 | 6.4 | 0.00 | 0.00 | 0.00 | 28 | 1020.9 |
| 20260503182021 | 26 | 21 | 1.6 | 3.2 | 0.00 | 0.00 | 0.00 | 27 | 1021.1 |
| 20260503181518 | 25 | 84 | 3.2 | 3.2 | 0.00 | 0.00 | 0.00 | 26 | 1021.2 |
| 20260503181014 | 25 | 86 | 1.6 | 1.6 | 0.00 | 0.00 | 0.00 | 29 | 1021.0 |
| 20260503180512 | 25 | 99 | 3.2 | 3.2 | 0.00 | 0.00 | 0.00 | 27 | 1021.1 |
| 20260503180009 | 25 | 121 | 3.2 | 3.2 | 0.00 | 0.00 | 0.00 | 27 | 1021.1 |
| 20260503175506 | 25 | 130 | 1.6 | 1.6 | 0.00 | 0.00 | 0.00 | 29 | 1021.1 |
| 20260503175003 | 25 | 100 | 3.2 | 3.2 | 0.00 | 0.00 | 0.00 | 28 | 1021.3 |
| 20260503174501 | 25 | 339 | 3.2 | 4.8 | 0.00 | 0.00 | 0.00 | 30 | 1021.2 |
| 20260503173956 | 25 | 104 | 1.6 | 1.6 | 0.00 | 0.00 | 0.00 | 29 | 1021.1 |
| 20260503173451 | 24 | 89 | 1.6 | 1.6 | 0.00 | 0.00 | 0.00 | 29 | 1021.2 |
| 20260503172948 | 25 | 209 | 3.2 | 3.2 | 0.00 | 0.00 | 0.00 | 28 | 1021.2 |
| 20260503172446 | 24 | 128 | 1.6 | 1.6 | 0.00 | 0.00 | 0.00 | 30 | 1021.3 |
| 20260503171942 | 23 | 177 | 3.2 | 3.2 | 0.00 | 0.00 | 0.00 | 31 | 1021.3 |
| 20260503171439 | 24 | 120 | 1.6 | 1.6 | 0.00 | 0.00 | 0.00 | 29 | 1021.4 |
| 20260503170937 | 25 | 49 | 4.8 | 6.4 | 0.00 | 0.00 | 0.00 | 28 | 1021.5 |
| 20260503170432 | 24 | 346 | 4.8 | 9.7 | 0.00 | 0.00 | 0.00 | 28 | 1021.6 |
| 20260503150825 | 23 | 157 | 0.0 | 1.6 | 0.00 | 0.00 | 0.00 | 37 | 1022.5 |
| 20260503150321 | 23 | 101 | 3.2 | 3.2 | 0.00 | 0.00 | 0.00 | 36 | 1022.5 |
| 20260503140245 | 22 | 151 | 0.0 | 1.6 | 0.00 | 0.00 | 0.00 | 43 | 1022.1 |
| 20260503131215 | 18 | 166 | 0.0 | 1.6 | 0.00 | 0.00 | 0.00 | 51 | 1021.7 |
| 20260503130713 | 18 | 150 | 0.0 | 0.0 | 0.00 | 0.00 | 0.00 | 52 | 1021.6 |
| 20260503130210 | 18 | 160 | 0.0 | 0.0 | 0.00 | 0.00 | 0.00 | 54 | 1021.5 |
| 20260503120135 | 12 | 159 | 0.0 | 0.0 | 0.00 | 0.00 | 0.00 | 80 | 1021.2 |
| 20260503110603 | 10 | 160 | 0.0 | 0.0 | 0.00 | 0.00 | 0.00 | 85 | 1020.5 |
| 20260503090450 | 10 | 160 | 0.0 | 0.0 | 0.00 | 0.00 | 0.00 | 78 | 1020.1 |
| 20260503081416 | 11 | 160 | 0.0 | 0.0 | 0.00 | 0.00 | 0.00 | 76 | 1019.8 |
| 20260503080913 | 11 | 160 | 0.0 | 0.0 | 0.00 | 0.00 | 0.00 | 75 | 1019.7 |
| 20260503080410 | 11 | 160 | 0.0 | 0.0 | 0.00 | 0.00 | 0.00 | 74 | 1019.8 |
| 20260503072846 | 12 | 160 | 0.0 | 0.0 | 0.00 | 0.00 | 0.00 | 72 | 1019.3 |
| 20260503072343 | 12 | 160 | 0.0 | 0.0 | 0.00 | 0.00 | 0.00 | 72 | 1019.6 |
| 20260503071840 | 12 | 160 | 0.0 | 0.0 | 0.00 | 0.00 | 0.00 | 72 | 1019.5 |
| 20260503071337 | 12 | 160 | 0.0 | 0.0 | 0.00 | 0.00 | 0.00 | 72 | 1019.5 |
| 20260503070833 | 12 | 159 | 0.0 | 0.0 | 0.00 | 0.00 | 0.00 | 72 | 1019.7 |
| 20260503070331 | 12 | 160 | 0.0 | 0.0 | 0.00 | 0.00 | 0.00 | 72 | 1019.4 |
| 20260503060302 | 13 | 160 | 0.0 | 0.0 | 0.00 | 0.00 | 0.00 | 69 | 1019.2 |
| 20260503054749 | 13 | 160 | 0.0 | 0.0 | 0.00 | 0.00 | 0.00 | 67 | 1019.2 |
| 20260503054246 | 13 | 160 | 0.0 | 0.0 | 0.00 | 0.00 | 0.00 | 66 | 1019.3 |
| 20260503053744 | 13 | 160 | 0.0 | 0.0 | 0.00 | 0.00 | 0.00 | 66 | 1019.1 |
| 20260503053243 | 13 | 160 | 0.0 | 0.0 | 0.00 | 0.00 | 0.00 | 66 | 1019.1 |
| 20260503052738 | 13 | 160 | 0.0 | 0.0 | 0.00 | 0.00 | 0.00 | 66 | 1019.2 |
| 20260503052235 | 13 | 160 | 0.0 | 0.0 | 0.00 | 0.00 | 0.00 | 67 | 1019.1 |
| 20260503051730 | 13 | 160 | 0.0 | 0.0 | 0.00 | 0.00 | 0.00 | 66 | 1019.2 |
| 20260503051228 | 13 | 160 | 0.0 | 0.0 | 0.00 | 0.00 | 0.00 | 66 | 1019.0 |
| 20260503050724 | 13 | 160 | 0.0 | 0.0 | 0.00 | 0.00 | 0.00 | 65 | 1019.2 |
| 20260503050221 | 13 | 160 | 0.0 | 0.0 | 0.00 | 0.00 | 0.00 | 66 | 1019.0 |
| 20260503045718 | 13 | 160 | 0.0 | 0.0 | 0.00 | 3.20 | 3.20 | 65 | 1018.9 |
| 20260503045216 | 13 | 160 | 0.0 | 0.0 | 0.00 | 3.20 | 3.20 | 65 | 1019.1 |
| 20260503044712 | 13 | 160 | 0.0 | 0.0 | 0.00 | 3.20 | 3.20 | 65 | 1019.0 |
| 20260503044210 | 14 | 160 | 0.0 | 0.0 | 0.00 | 3.20 | 3.20 | 64 | 1019.0 |
| 20260503043706 | 14 | 160 | 0.0 | 0.0 | 0.00 | 3.20 | 3.20 | 64 | 1018.7 |
| 20260503043204 | 14 | 160 | 0.0 | 0.0 | 0.00 | 3.20 | 3.20 | 63 | 1018.7 |
| 20260503042659 | 14 | 160 | 0.0 | 0.0 | 0.00 | 3.20 | 3.20 | 62 | 1018.8 |
| 20260503042156 | 14 | 160 | 0.0 | 0.0 | 0.00 | 3.20 | 3.20 | 62 | 1018.5 |
| 20260503041652 | 15 | 160 | 0.0 | 0.0 | 0.00 | 3.20 | 3.20 | 62 | 1018.7 |
| 20260503041150 | 15 | 160 | 0.0 | 0.0 | 0.00 | 3.20 | 3.20 | 61 | 1018.5 |
| 20260503040648 | 15 | 160 | 0.0 | 0.0 | 0.00 | 3.20 | 3.20 | 61 | 1018.5 |
| 20260503040145 | 15 | 160 | 0.0 | 0.0 | 0.00 | 3.20 | 3.20 | 61 | 1018.6 |
| 20260503035641 | 15 | 160 | 0.0 | 0.0 | 0.00 | 3.20 | 3.20 | 61 | 1018.6 |
| 20260503035139 | 15 | 160 | 0.0 | 0.0 | 0.00 | 3.20 | 3.20 | 60 | 1018.4 |
| 20260503034636 | 15 | 160 | 0.0 | 0.0 | 0.00 | 3.20 | 3.20 | 60 | 1018.5 |